Date String (YYYY-MM-DD hh:mm:ss) UTC,Instrument flags,Ambient pressure (hPa),Sample flow (lpm),Bypass flow (lpm),Sample temperature (°C),Ambient temperature (°C),ASC tube jacket temperature (°C),LED temperature (°C),Box temperature (°C),Sample RH (%),Span deviation,Mass concentration (μg/m³),Mass concentration (μg/m³),Mass concentration (μg/m³)
DateTimeUTC,F1_M11,P_M11,Q1_M11,Q2_M11,T1_M11,T2_M11,T3_M11,T4_M11,T5_M11,U1_M11,ZSPAN_M11,X0_M11,X2_M11,X1_M11
2021-11-01 04:00:00,,0829.5,5.01,0.00,25.5,24.6,00.0,34.6,27.4,18.4,0000.0,0011.95,0006.33,0005.81
2021-11-01 04:01:00,,0829.5,4.99,0.00,25.5,24.6,00.0,34.6,27.4,18.3,0000.0,0011.45,0006.32,0005.79
2021-11-01 04:02:00,,0829.5,5.01,0.00,25.5,24.6,00.0,34.6,27.4,18.3,0000.0,0010.83,0006.31,0005.79
2021-11-01 04:03:00,,0829.5,5.01,0.00,25.5,24.6,00.0,34.6,27.4,18.4,0000.0,0011.53,0006.31,0005.78
2021-11-01 04:04:00,,0829.6,4.99,0.00,25.5,24.6,00.0,34.6,27.3,18.4,0000.0,0011.43,0006.29,0005.78
2021-11-01 04:05:00,,0829.6,5.01,0.00,25.5,24.6,00.0,34.6,27.3,18.4,0000.0,0010.77,0006.27,0005.78
2021-11-01 04:06:00,,0829.5,4.99,0.00,25.5,24.6,00.0,34.6,27.3,18.4,0000.0,0010.43,0006.26,0005.78
2021-11-01 04:07:00,,0829.5,5.01,0.00,25.5,24.6,00.0,34.6,27.4,18.4,0000.0,0010.30,0006.24,0005.78
2021-11-01 04:08:00,,0829.5,5.01,0.00,25.5,24.6,00.0,34.5,27.3,18.4,0000.0,0010.01,0006.20,0005.79
2021-11-01 04:09:00,,0829.5,4.99,0.00,25.5,24.6,00.0,34.5,27.3,18.5,0000.0,0009.33,0006.22,0005.80
2021-11-01 04:10:00,,0829.6,5.01,0.00,25.5,24.6,00.0,34.5,27.3,18.5,0000.0,0009.94,0006.25,0005.81
2021-11-01 04:11:00,,0829.6,5.00,0.00,25.5,24.6,00.0,34.5,27.3,18.5,0000.0,0010.43,0006.25,0005.81
2021-11-01 04:12:00,,0829.6,5.00,0.00,25.5,24.6,00.0,34.5,27.4,18.4,0000.0,0010.74,0006.26,0005.81
2021-11-01 04:13:00,,0829.5,5.00,0.00,25.5,24.6,00.0,34.5,27.3,18.4,0000.0,0011.66,0006.25,0005.79
2021-11-01 04:14:00,,0829.5,5.00,0.00,25.5,24.6,00.0,34.5,27.3,18.4,0000.0,0011.42,0006.23,0005.79
2021-11-01 04:15:00,,0829.6,5.00,0.00,25.5,24.6,00.0,34.5,27.4,18.4,0000.0,0011.28,0006.26,0005.80
2021-11-01 04:16:00,,0829.5,5.00,0.00,25.5,24.7,00.0,34.5,27.3,18.4,0000.0,0011.33,0006.25,0005.81
2021-11-01 04:17:00,,0829.6,5.00,0.00,25.5,24.7,00.0,34.5,27.3,18.4,0000.0,0011.33,0006.27,0005.80
2021-11-01 04:18:00,,0829.6,5.00,0.00,25.5,24.7,00.0,34.5,27.3,18.4,0000.0,0011.31,0006.28,0005.81
2021-11-01 04:19:00,,0829.6,5.01,0.00,25.5,24.6,00.0,34.5,27.3,18.4,0000.0,0011.37,0006.30,0005.80
2021-11-01 04:20:00,,0829.6,4.99,0.00,25.5,24.6,00.0,34.5,27.3,18.4,0000.0,0011.55,0006.28,0005.79
2021-11-01 04:21:00,,0829.5,4.99,0.00,25.5,24.6,00.0,34.5,27.3,18.4,0000.0,0011.44,0006.27,0005.78
2021-11-01 04:22:00,,0829.5,5.00,0.00,25.5,24.6,00.0,34.5,27.3,18.4,0000.0,0010.83,0006.28,0005.79
2021-11-01 04:23:00,,0829.6,5.01,0.00,25.4,24.6,00.0,34.5,27.3,18.4,0000.0,0010.55,0006.29,0005.80
2021-11-01 04:24:00,,0829.5,5.00,0.00,25.4,24.6,00.0,34.5,27.3,18.4,0000.0,0009.62,0006.30,0005.81
2021-11-01 04:25:00,,0829.5,5.00,0.00,25.4,24.6,00.0,34.5,27.3,18.3,0000.0,0009.30,0006.28,0005.80
2021-11-01 04:26:00,,0829.5,5.01,0.00,25.4,24.6,00.0,34.5,27.3,18.3,0000.0,0009.22,0006.24,0005.77
2021-11-01 04:27:00,,0829.5,5.00,0.00,25.4,24.6,00.0,34.5,27.3,18.3,0000.0,0009.19,0006.26,0005.77
2021-11-01 04:28:00,,0829.6,5.01,0.00,25.4,24.6,00.0,34.5,27.3,18.3,0000.0,0009.51,0006.25,0005.76
2021-11-01 04:29:00,,0829.6,4.99,0.00,25.4,24.6,00.0,34.5,27.3,18.3,0000.0,0009.68,0006.25,0005.76
2021-11-01 04:30:00,,0829.6,5.00,0.00,25.4,24.6,00.0,34.5,27.3,18.3,0000.0,0010.53,0006.23,0005.75
2021-11-01 04:31:00,,0829.5,5.01,0.00,25.4,24.6,00.0,34.5,27.3,18.3,0000.0,0011.57,0006.21,0005.75
2021-11-01 04:32:00,,0829.5,4.99,0.00,25.5,24.6,00.0,34.5,27.3,18.3,0000.0,0011.85,0006.24,0005.75
2021-11-01 04:33:00,,0829.4,5.00,0.00,25.5,24.6,00.0,34.5,27.3,18.3,0000.0,0012.49,0006.22,0005.73
2021-11-01 04:34:00,,0829.4,4.99,0.00,25.4,24.6,00.0,34.5,27.3,18.3,0000.0,0012.71,0006.19,0005.70
2021-11-01 04:35:00,,0829.4,5.00,0.00,25.5,24.6,00.0,34.5,27.3,18.2,0000.0,0013.23,0006.16,0005.67
2021-11-01 04:36:00,,0829.4,5.01,0.00,25.5,24.6,00.0,34.5,27.3,18.2,0000.0,0013.32,0006.13,0005.64
2021-11-01 04:37:00,,0829.5,5.00,0.00,25.4,24.6,00.0,34.5,27.3,18.1,0000.0,0013.35,0006.09,0005.61
2021-11-01 04:38:00,,0829.5,5.00,0.00,25.4,24.6,00.0,34.5,27.3,18.1,0000.0,0013.21,0006.00,0005.57
2021-11-01 04:39:00,,0829.5,4.99,0.00,25.4,24.6,00.0,34.5,27.3,18.1,0000.0,0012.81,0005.95,0005.52
2021-11-01 04:40:00,,0829.5,5.01,0.00,25.4,24.6,00.0,34.5,27.3,18.1,0000.0,0012.94,0005.90,0005.46
2021-11-01 04:41:00,,0829.3,5.00,0.00,25.5,24.6,00.0,34.5,27.3,18.1,0000.0,0012.03,0005.86,0005.42
2021-11-01 04:42:00,,0829.3,5.01,0.00,25.4,24.6,00.0,34.5,27.3,18.1,0000.0,0010.87,0005.82,0005.38
2021-11-01 04:43:00,,0829.4,4.99,0.00,25.4,24.6,00.0,34.5,27.3,18.1,0000.0,0010.21,0005.74,0005.32
2021-11-01 04:44:00,,0829.4,5.02,0.00,25.4,24.6,00.0,34.5,27.3,18.2,0000.0,0009.59,0005.69,0005.27
2021-11-01 04:45:00,,0829.5,5.00,0.00,25.4,24.6,00.0,34.5,27.3,18.2,0000.0,0009.18,0005.63,0005.23
2021-11-01 04:46:00,,0829.4,5.00,0.00,25.4,24.6,00.0,34.5,27.3,18.2,0000.0,0008.69,0005.56,0005.18
2021-11-01 04:47:00,,0829.4,5.00,0.00,25.4,24.6,00.0,34.5,27.3,18.2,0000.0,0008.50,0005.56,0005.16
2021-11-01 04:48:00,,0829.4,5.00,0.00,25.4,24.6,00.0,34.5,27.3,18.2,0000.0,0008.41,0005.54,0005.15
2021-11-01 04:49:00,,0829.5,5.02,0.00,25.4,24.6,00.0,34.5,27.3,18.2,0000.0,0008.43,0005.53,0005.14
2021-11-01 04:50:00,,0829.4,5.00,0.00,25.4,24.6,00.0,34.5,27.2,18.2,0000.0,0008.25,0005.49,0005.12
2021-11-01 04:51:00,,0829.2,4.99,0.00,25.4,24.5,00.0,34.5,27.2,18.2,0000.0,0007.90,0005.41,0005.09
2021-11-01 04:52:00,,0829.2,5.00,0.00,25.4,24.6,00.0,34.5,27.2,18.1,0000.0,0007.83,0005.40,0005.05
2021-11-01 04:53:00,,0829.2,5.00,0.00,25.4,24.6,00.0,34.4,27.2,18.1,0000.0,0007.80,0005.36,0005.01
2021-11-01 04:54:00,,0829.3,5.01,0.00,25.4,24.5,00.0,34.4,27.2,18.0,0000.0,0007.76,0005.31,0004.97
2021-11-01 04:55:00,,0829.2,5.00,0.00,25.4,24.5,00.0,34.4,27.2,18.0,0000.0,0007.63,0005.23,0004.93
2021-11-01 04:56:00,,0829.2,5.00,0.00,25.3,24.4,00.0,34.4,27.1,18.0,0000.0,0007.52,0005.17,0004.88
2021-11-01 04:57:00,,0829.2,5.00,0.00,25.3,24.4,00.0,34.4,27.1,18.0,0000.0,0007.67,0005.14,0004.85
2021-11-01 04:58:00,,0829.3,5.01,0.00,25.3,24.4,00.0,34.4,27.1,18.0,0000.0,0008.14,0005.07,0004.80
2021-11-01 04:59:00,,0829.2,5.00,0.00,25.3,24.4,00.0,34.4,27.1,18.0,0000.0,0008.59,0005.04,0004.77
